Вернуться в каталог

STARLINK-35327

АктивенСвязьVLEO
NORAD 66439·PAYLOAD·🇺🇸 United States

Запущен Nov 11, 2025 с Cape Canaveral Space Force Station

Loading…

Ближайшие Пролёты (ближайшие 24 часа)

TLE

СвежийSource: CelesTrak SupGP

Эпоха: Sep 15, 2026, 03:35 UTC

1 66439C 25259T   26258.14979167 -.00004839  00000+0 -17526-3 0  2585
2 66439  42.9999 283.9849 0001352 263.6525  11.3934 15.27583201    11

Отслеживайте STARLINK-35327 в реальном времени с AllMySat

Download on the App Store